Regional Weather Roundup
Issued by NWS

Home | Current Version | Previous Version | Text Only | Print | Product List | Glossary On
Versions: 1 2 3 4 5 6 7 8 9 10 11 12 13 14 15 16 17 18 19 20 21 22 23 24 25 26 27 28 29 30 31 32 33 34 35 36 37 38 39 40 41 42 43 44 45 46 47 48 49 50
000
ASUS44 KJAN 280903
RWRMS

MISSISSIPPI HOURLY WEATHER ROUNDUP
NATIONAL WEATHER SERVICE JACKSON MS
400 AM CDT MON JUL 28 2014

NOTE: "FAIR: INDICATES FEW OR NO CLOUDS BELOW 12,000 FEET WITH NO
SIGNIFICANT WEATHER AND/OR OBSTRUCTIONS TO VISIBILITY.

MSZ001>002-007>008-010>013-018>021-025>028-034>036-281000-
NORTHWEST MISSISSIPPI

CITY           SKY/WX    TMP DP  RH WIND       PRES   REMARKS
CLARKSDALE     FAIR      77  77 100 NW6       29.99R
CLEVELAND      FAIR      79  78  96 NW6       29.97R
GREENWOOD      MOCLDY    79  76  90 SW5       29.96S
GREENVILLE     MOCLDY    80  75  84 MISG      29.98R
GRENADA        FAIR      77  73  88 CALM      29.97R
OLIVE BRANCH   CLEAR     75  70  83 N13       29.98S
OXFORD         FAIR      77  75  94 N3        29.98S
TUNICA         SUNNY     75  68  78 NW8       30.00R
$$

MSZ003>006-009-014>017-022>024-029>033-037>039-281000-
NORTHEAST MISSISSIPPI

CITY           SKY/WX    TMP DP  RH WIND       PRES   REMARKS
BELMONT        FAIR      76  76  98 W3        29.95S
COLUMBUS AFB   PTCLDY    80  74  82 W7        29.94S
CORINTH        FAIR      77  72  83 N6        29.95R
GOLDN TRIANGLE PTCLDY    79  72  78 W5        29.95S
STARKVILLE     FAIR      79  73  83 CALM      29.96R
TUPELO         PTCLDY    80  75  84 NW5       29.94S
$$

MSZ040-058-281000-
CENTRAL MISSISSIPPI

CITY           SKY/WX    TMP DP  RH WIND       PRES   REMARKS
JACKSON INTL   CLEAR     78  74  87 SW3       30.00S
JACKSON HAWKNS CLEAR     80  73  79 W8        30.00S
MERIDIAN KEY   CLEAR     75  73  93 CALM      29.99S
MERIDIAN NAS   CLEAR     77  73  87 SW5       29.98R
RAYMOND        FAIR      77  73  88 W5        30.00S
VICKSBURG      CLEAR     78  75  90 SW3       30.00S
$$

MSZ059>079-281000-
SOUTH MISSISSIPPI

CITY           SKY/WX    TMP DP  RH WIND       PRES   REMARKS
BROOKHAVEN     FAIR      79  75  89 SW8       30.05R
COLUMBIA       FAIR      77  75  94 W3        30.02R
HATTIESBURG    CLEAR     80  76  87 W8        30.02R
MCCOMB         CLEAR     78  75  90 W8        30.04R
NATCHEZ        PTCLDY    79  73  83 SW7       30.04S
PINE BELT      CLEAR     77  73  88 CALM      30.03R
$$

MSZ080>082-281000-
COASTAL MISSISSIPPI

CITY           SKY/WX    TMP DP  RH WIND       PRES   REMARKS
BILOXI         CLEAR     81  78  88 VRB3      30.01R
PASCAGOULA     CLEAR     79  76  90 CALM      30.01R
GULFPORT       CLEAR     83  77  82 W8        30.00S HX  92
$$



USA.gov is the U.S. government's official web portal to all federal, state and local government web resources and services.